When you browse on this site, cookies collect data to enhance your experience and personalize the content and advertising you see.
Visit our Privacy Policy to learn more. By continuing to use the site, you agree to this use of cookies and data.

Hourly Weather Armagh

Today, 9 July, Thursday

Time Temperature Precipitation Wind Pressure Humidity
00:00 +11°C° 0 mm 3 mps 753 mmHg 99%
01:00 +10°C° 0.1 mm 3 mps 753 mmHg 98%
02:00 +10°C° 0.1 mm 3 mps 753 mmHg 97%
03:00 +10°C° 0.1 mm 3 mps 753 mmHg 97%
04:00 +10°C° 0 mm 3 mps 754 mmHg 96%
05:00 +10°C° 0 mm 3 mps 754 mmHg 96%
06:00 +10°C° 0 mm 3 mps 755 mmHg 95%
07:00 +11°C° 0 mm 3 mps 755 mmHg 91%
08:00 +12°C° 0 mm 3 mps 756 mmHg 87%
09:00 +14°C° 0 mm 4 mps 756 mmHg 83%
10:00 +14°C° 0.1 mm 4 mps 756 mmHg 79%
11:00 +15°C° 0.1 mm 4 mps 756 mmHg 75%
12:00 +17°C° 0.1 mm 4 mps 756 mmHg 71%
13:00 +17°C° 0.1 mm 4 mps 757 mmHg 70%
14:00 +17°C° 0.1 mm 4 mps 757 mmHg 69%
15:00 +17°C° 0.1 mm 4 mps 757 mmHg 68%
16:00 +15°C° 0 mm 4 mps 757 mmHg 70%
17:00 +15°C° 0 mm 4 mps 757 mmHg 71%
18:00 +14°C° 0 mm 4 mps 757 mmHg 72%
19:00 +13°C° 0 mm 4 mps 757 mmHg 76%
20:00 +11°C° 0 mm 3 mps 758 mmHg 81%
21:00 +10°C° 0 mm 3 mps 758 mmHg 85%
22:00 +9°C° 0 mm 3 mps 758 mmHg 88%
23:00 +8°C° 0 mm 3 mps 758 mmHg 90%

Tomorrow, 10 July, Friday

Time Temperature Precipitation Wind Pressure Humidity
00:00 +8°C° 0 mm 3 mps 758 mmHg 93%
01:00 +7°C° 0 mm 3 mps 758 mmHg 93%
02:00 +7°C° 0 mm 3 mps 758 mmHg 93%
03:00 +7°C° 0 mm 3 mps 758 mmHg 93%
04:00 +7°C° 0 mm 3 mps 759 mmHg 92%
05:00 +8°C° 0 mm 3 mps 759 mmHg 91%
06:00 +9°C° 0 mm 3 mps 759 mmHg 90%
07:00 +10°C° 0 mm 4 mps 759 mmHg 86%
08:00 +12°C° 0 mm 4 mps 760 mmHg 82%
09:00 +13°C° 0 mm 5 mps 760 mmHg 77%
10:00 +14°C° 0.3 mm 5 mps 760 mmHg 78%
11:00 +14°C° 0.3 mm 5 mps 760 mmHg 78%
12:00 +15°C° 0.3 mm 5 mps 760 mmHg 78%
13:00 +15°C° 0.6 mm 5 mps 761 mmHg 80%
14:00 +15°C° 0.6 mm 5 mps 761 mmHg 81%
15:00 +15°C° 0.6 mm 6 mps 761 mmHg 82%
16:00 +15°C° 0.3 mm 5 mps 761 mmHg 82%
17:00 +14°C° 0.3 mm 5 mps 761 mmHg 82%
18:00 +14°C° 0.3 mm 5 mps 761 mmHg 82%
19:00 +13°C° 0 mm 4 mps 762 mmHg 85%
20:00 +11°C° 0 mm 3 mps 762 mmHg 88%
21:00 +10°C° 0 mm 3 mps 763 mmHg 90%
22:00 +9°C° 0 mm 3 mps 763 mmHg 92%
23:00 +8°C° 0 mm 2 mps 763 mmHg 94%

Day after tomorrow, 11 July, Saturday

Time Temperature Precipitation Wind Pressure Humidity
00:00 +7°C° 0 mm 2 mps 764 mmHg 95%
01:00 +7°C° 0 mm 2 mps 764 mmHg 96%
02:00 +7°C° 0 mm 2 mps 764 mmHg 97%
03:00 +7°C° 0 mm 2 mps 764 mmHg 97%
04:00 +8°C° 0 mm 2 mps 764 mmHg 97%
05:00 +9°C° 0 mm 2 mps 764 mmHg 96%
06:00 +9°C° 0 mm 2 mps 764 mmHg 96%
07:00 +12°C° 0 mm 2 mps 765 mmHg 90%
08:00 +12°C° 0 mm 3 mps 765 mmHg 85%
09:00 +14°C° 0 mm 3 mps 765 mmHg 79%
10:00 +16°C° 0 mm 3 mps 765 mmHg 75%
11:00 +16°C° 0 mm 2 mps 765 mmHg 72%
12:00 +17°C° 0 mm 2 mps 765 mmHg 68%
13:00 +17°C° 0 mm 2 mps 765 mmHg 68%
14:00 +18°C° 0 mm 2 mps 765 mmHg 67%
15:00 +18°C° 0 mm 2 mps 766 mmHg 67%
16:00 +18°C° 0 mm 2 mps 765 mmHg 70%
17:00 +18°C° 0 mm 2 mps 765 mmHg 72%
18:00 +18°C° 0 mm 1 mps 765 mmHg 75%
19:00 +16°C° 0 mm 1 mps 765 mmHg 79%
20:00 +14°C° 0 mm 1 mps 765 mmHg 83%
21:00 +12°C° 0 mm 1 mps 766 mmHg 88%
22:00 +12°C° 0 mm 1 mps 765 mmHg 89%
23:00 +11°C° 0 mm 1 mps 765 mmHg 91%

12 July, Sunday

Time Temperature Precipitation Wind Pressure Humidity
00:00 +10°C° 0 mm 1 mps 765 mmHg 93%
01:00 +10°C° 0 mm 1 mps 765 mmHg 93%
02:00 +10°C° 0 mm 1 mps 765 mmHg 94%
03:00 +10°C° 0 mm 1 mps 764 mmHg 94%
04:00 +11°C° 0 mm 1 mps 764 mmHg 93%
05:00 +10°C° 0 mm 2 mps 764 mmHg 92%
06:00 +12°C° 0 mm 2 mps 764 mmHg 90%
07:00 +12°C° 0.1 mm 2 mps 764 mmHg 90%
08:00 +13°C° 0.1 mm 2 mps 764 mmHg 90%
09:00 +12°C° 0.1 mm 3 mps 764 mmHg 89%
10:00 +12°C° 0.1 mm 3 mps 765 mmHg 89%
11:00 +13°C° 0.1 mm 3 mps 765 mmHg 88%
12:00 +13°C° 0.1 mm 3 mps 765 mmHg 87%
13:00 +13°C° 0.3 mm 3 mps 765 mmHg 90%
14:00 +12°C° 0.3 mm 3 mps 765 mmHg 93%
15:00 +12°C° 0.3 mm 3 mps 765 mmHg 95%
16:00 +12°C° 0.2 mm 3 mps 764 mmHg 96%
17:00 +12°C° 0.2 mm 3 mps 764 mmHg 96%
18:00 +12°C° 0.2 mm 3 mps 764 mmHg 96%
19:00 +12°C° 0.1 mm 3 mps 764 mmHg 96%
20:00 +13°C° 0.1 mm 2 mps 764 mmHg 96%
21:00 +13°C° 0.1 mm 2 mps 764 mmHg 96%
22:00 +13°C° 0 mm 2 mps 764 mmHg 95%
23:00 +12°C° 0 mm 3 mps 763 mmHg 95%

13 July, Monday

Time Temperature Precipitation Wind Pressure Humidity
00:00 +12°C° 0 mm 3 mps 763 mmHg 95%
01:00 +12°C° 0 mm 3 mps 763 mmHg 95%
02:00 +12°C° 0 mm 3 mps 762 mmHg 95%
03:00 +12°C° 0 mm 3 mps 762 mmHg 95%
04:00 +12°C° 0.1 mm 3 mps 762 mmHg 95%
05:00 +12°C° 0.1 mm 3 mps 762 mmHg 94%
06:00 +12°C° 0.1 mm 3 mps 761 mmHg 94%
07:00 +12°C° 0.4 mm 3 mps 761 mmHg 94%
08:00 +12°C° 0.4 mm 3 mps 761 mmHg 95%
09:00 +12°C° 0.4 mm 3 mps 761 mmHg 95%
10:00 +12°C° 0.2 mm 3 mps 761 mmHg 95%
11:00 +13°C° 0.2 mm 4 mps 761 mmHg 95%
12:00 +13°C° 0.2 mm 4 mps 761 mmHg 95%
13:00 +14°C° 0.2 mm 4 mps 761 mmHg 94%
14:00 +14°C° 0.2 mm 3 mps 761 mmHg 93%
15:00 +16°C° 0.2 mm 3 mps 761 mmHg 91%
16:00 +16°C° 0.4 mm 3 mps 761 mmHg 93%
17:00 +14°C° 0.4 mm 3 mps 761 mmHg 94%
18:00 +15°C° 0.4 mm 2 mps 760 mmHg 96%
19:00 +14°C° 0.1 mm 2 mps 761 mmHg 96%
20:00 +13°C° 0.1 mm 2 mps 761 mmHg 96%
21:00 +13°C° 0.1 mm 2 mps 761 mmHg 96%
22:00 +12°C° 0 mm 2 mps 761 mmHg 95%
23:00 +10°C° 0 mm 2 mps 761 mmHg 95%

14 July, Tuesday

Time Temperature Precipitation Wind Pressure Humidity
00:00 +9°C° 0 mm 2 mps 761 mmHg 95%
01:00 +10°C° 0 mm 2 mps 761 mmHg 94%
02:00 +10°C° 0 mm 2 mps 761 mmHg 94%
03:00 +10°C° 0 mm 2 mps 760 mmHg 93%
04:00 +10°C° 0 mm 2 mps 761 mmHg 93%
05:00 +10°C° 0 mm 2 mps 761 mmHg 93%
06:00 +10°C° 0 mm 2 mps 761 mmHg 92%
07:00 +12°C° 0 mm 2 mps 761 mmHg 88%
08:00 +12°C° 0 mm 3 mps 761 mmHg 83%
09:00 +13°C° 0 mm 3 mps 761 mmHg 78%
10:00 +14°C° 0 mm 3 mps 761 mmHg 76%
11:00 +14°C° 0 mm 3 mps 761 mmHg 74%
12:00 +16°C° 0 mm 3 mps 761 mmHg 72%
13:00 +16°C° 0 mm 3 mps 760 mmHg 75%
14:00 +16°C° 0 mm 3 mps 760 mmHg 78%
15:00 +16°C° 0 mm 3 mps 760 mmHg 81%
16:00 +14°C° 0 mm 3 mps 760 mmHg 84%
17:00 +14°C° 0 mm 3 mps 760 mmHg 86%
18:00 +13°C° 0 mm 3 mps 760 mmHg 88%
19:00 +13°C° 0.1 mm 3 mps 760 mmHg 91%
20:00 +13°C° 0.1 mm 3 mps 760 mmHg 93%
21:00 +12°C° 0.1 mm 3 mps 759 mmHg 95%
22:00 +12°C° 0 mm 3 mps 759 mmHg 95%
23:00 +12°C° 0 mm 3 mps 759 mmHg 95%
Show more